Gallup, NM

1:33 PM MST on January 16, 2018 (GMT -0700)
Gallup Municipal

Weather History for KGUP - February, 2013

Change the Weather History Date:

Friday, February 22, 2013

  Actual Average Record
Temperature  
Mean Temperature 32 °F -  
Max Temperature 39 °F 45 °F 65 °F (1982)
Min Temperature 24 °F 18 °F 1 °F (2006)
Degree Days  
Heating Degree Days 34    
Moisture  
Dew Point 18 °F    
Average Humidity 59    
Maximum Humidity 80    
Minimum Humidity 35    
Precipitation  
Precipitation 0.00 in - - ()
Sea Level Pressure  
Sea Level Pressure 29.99 in    
Wind  
Wind Speed 9 mph (SW)    
Max Wind Speed 18 mph    
Max Gust Speed 23 mph    
Visibility 10 miles    
Events Snow    
Averages and records for this station are not official NWS values.
T = Trace of Precipitation, MM = Missing Value Source: NWS Daily Summary

Daily Weather History Graph

Daily Weather History Graph

Search for Another Location

Airport or City:

Trip Planner

Search our weather history database for the weather conditions in past years. The results will help you decide how hot, cold, wet, or windy it might be!

Date:

Astronomy

Feb. 22, 2013 Rise Set
Actual Time 6:53 AM MST 6:04 PM MST
Civil Twilight 6:27 AM MST 6:30 PM MST
Nautical Twilight 5:57 AM MST 6:59 PM MST
Astronomical Twilight 5:28 AM MST 7:29 PM MST
Moon 3:22 PM MST (2/22) 4:36 AM MST (2/22)
Length of Visible Light 12h 02m
Length of Day
11h 10m
Waxing Gibbous, 90% of the Moon is Illuminated
Feb 22
Waxing Gibbous
Feb 25
Full
Mar 4
Last Quarter
Mar 11
New
Mar 19
First Quarter

Hourly Weather History & Observations

Time (MST) Temp. Windchill Dew Point Humidity Pressure Visibility Wind Dir Wind Speed Gust Speed Precip Events Conditions
12:11 AM 30.2 °F 23.4 °F 24.8 °F 80% 29.92 in 10.0 mi SSW 6.9 mph - N/A   Overcast
12:43 AM 30.2 °F 21.9 °F 24.8 °F 80% 29.92 in 10.0 mi SSW 9.2 mph - N/A   Overcast
12:53 AM 30.9 °F 22.2 °F 24.1 °F 76% 29.92 in 10.0 mi SW 10.4 mph - N/A   Overcast
1:53 AM 30.9 °F 22.8 °F 23.0 °F 72% 29.92 in 10.0 mi SW 9.2 mph - N/A   Overcast
2:53 AM 30.9 °F 24.3 °F 21.9 °F 69% 29.91 in 10.0 mi SW 6.9 mph - N/A   Overcast
3:53 AM 30.0 °F 23.2 °F 21.9 °F 72% 29.90 in 10.0 mi SSW 6.9 mph - N/A   Overcast
4:53 AM 28.9 °F 22.8 °F 21.0 °F 72% 29.94 in 10.0 mi SSW 5.8 mph - N/A   Overcast
5:53 AM 28.9 °F 21.1 °F 21.0 °F 72% 29.96 in 10.0 mi SSW 8.1 mph - N/A   Overcast
6:53 AM 30.0 °F 22.4 °F 19.0 °F 64% 29.97 in 10.0 mi WSW 8.1 mph - N/A   Overcast
7:53 AM 30.0 °F 21.7 °F 19.9 °F 66% 29.99 in 10.0 mi SSW 9.2 mph - N/A   Mostly Cloudy
8:53 AM 30.9 °F 23.5 °F 19.9 °F 64% 30.01 in 10.0 mi SW 8.1 mph - N/A   Mostly Cloudy
9:19 AM 32.0 °F 22.1 °F 21.2 °F 64% 29.98 in 10.0 mi WSW 13.8 mph - N/A   Mostly Cloudy
9:53 AM 32.0 °F 22.1 °F 21.0 °F 64% 30.01 in 10.0 mi SW 13.8 mph - N/A   Partly Cloudy
10:53 AM 35.1 °F 26.9 °F 21.9 °F 59% 30.00 in 10.0 mi SW 11.5 mph - N/A   Clear
11:53 AM 34.0 °F 24.2 °F 21.9 °F 61% 30.00 in 10.0 mi SW 15.0 mph - 0.00 in   Mostly Cloudy
12:53 PM 36.0 °F 26.7 °F 19.9 °F 52% 29.96 in 10.0 mi SSW 15.0 mph - 0.00 in   Overcast
1:53 PM 36.0 °F 26.7 °F 19.9 °F 52% 29.95 in 9.0 mi SW 15.0 mph - 0.00 in Snow Light Snow
2:53 PM 39.0 °F 31.8 °F 19.0 °F 45% 29.92 in 10.0 mi WSW 11.5 mph 20.7 mph 0.00 in   Overcast
3:53 PM 37.9 °F 28.5 °F 21.0 °F 51% 29.94 in 10.0 mi SW 17.3 mph - N/A   Overcast
4:53 PM 37.0 °F 28.5 °F 19.0 °F 48% 29.97 in 10.0 mi SW 13.8 mph - N/A   Overcast
5:53 PM 36.0 °F 25.6 °F 14.0 °F 41% 29.99 in 10.0 mi West 18.4 mph 23.0 mph N/A   Overcast
6:53 PM 34.0 °F 25.5 °F 12.0 °F 40% 30.04 in 10.0 mi NW 11.5 mph - N/A   Mostly Cloudy
7:53 PM 32.0 °F 26.4 °F 7.0 °F 35% 30.09 in 10.0 mi NW 5.8 mph - N/A   Clear
8:53 PM 30.0 °F - 7.0 °F 38% 30.11 in 10.0 mi Calm Calm - N/A   Clear
9:53 PM 27.0 °F - 9.0 °F 47% 30.14 in 10.0 mi Calm Calm - N/A   Clear
10:53 PM 24.1 °F 19.7 °F 10.9 °F 57% 30.14 in 10.0 mi South 3.5 mph - N/A   Clear
11:53 PM 25.0 °F 20.7 °F 8.1 °F 49% 30.15 in 10.0 mi West 3.5 mph - N/A   Clear